Date String (YYYY-MM-DD hh:mm:ss) UTC,Instrument flags,absolute air pressure of the measurement (hPa),sample flow rate (lpm),inlet stack bypass flow (lpm),air temperature of the measurement (°C),ambient temperature measured by the external sensor (°C),aerosol sample conditioner tube jacket temperature (°C),OPC LED temperature (°C),internal box temperature (°C),relative humidity of the measurement (%),span deviation,mass concentration of particles derived from Lorenz-Mie calculation of OPC scattering (μg/m³),mass concentration of particles derived from Lorenz-Mie calculation of OPC scattering (μg/m³),mass concentration of particles derived from Lorenz-Mie calculation of OPC scattering (μg/m³)
DateTimeUTC,F1_M11,P_M11,Q1_M11,Q2_M11,T1_M11,T2_M11,T3_M11,T4_M11,T5_M11,U1_M11,ZSPAN_M11,X0_M11,X2_M11,X1_M11
2023-08-19 09:00:00,SystemResetWarning,0831.4,4.99,000.00,028.4,026.9,000.0,036.7,030.1,28.1,0000.0,0005.44,0002.36,0001.77
2023-08-19 09:01:00,SystemResetWarning,0831.4,4.99,000.00,028.4,025.0,000.0,036.6,029.8,28.0,0000.0,0006.10,0002.37,0001.77
2023-08-19 09:02:00,SystemResetWarning,0831.4,5.00,000.00,028.3,023.9,000.0,036.5,029.6,27.9,0000.0,0006.01,0002.32,0001.77
2023-08-19 09:03:00,SystemResetWarning,0831.4,5.02,000.00,028.2,023.9,000.0,036.5,029.5,28.0,0000.0,0006.00,0002.29,0001.76
2023-08-19 09:04:00,SystemResetWarning,0831.4,5.00,000.00,028.1,024.3,000.0,036.5,029.4,28.2,0000.0,0005.96,0002.28,0001.77
2023-08-19 09:05:00,SystemResetWarning,0831.4,5.00,000.00,028.0,024.7,000.0,036.5,029.5,28.1,0000.0,0006.06,0002.27,0001.76
2023-08-19 09:06:00,SystemResetWarning,0831.4,5.00,000.00,028.0,025.1,000.0,036.5,029.6,27.6,0000.0,0005.99,0002.25,0001.76
2023-08-19 09:07:00,SystemResetWarning,0831.4,5.01,000.00,028.0,025.5,000.0,036.5,029.6,27.6,0000.0,0006.03,0002.27,0001.77
2023-08-19 09:08:00,SystemResetWarning,0831.4,4.99,000.00,028.1,025.9,000.0,036.6,029.7,27.6,0000.0,0005.96,0002.25,0001.78
2023-08-19 09:09:00,SystemResetWarning,0831.5,5.01,000.00,028.1,026.2,000.0,036.6,029.8,27.4,0000.0,0005.83,0002.21,0001.76
2023-08-19 09:10:00,SystemResetWarning,0831.5,5.00,000.00,028.1,026.4,000.0,036.6,029.8,27.2,0000.0,0006.19,0002.18,0001.75
2023-08-19 09:11:00,SystemResetWarning,0831.5,5.00,000.00,028.1,026.6,000.0,036.6,029.9,27.0,0000.0,0005.32,0002.18,0001.75
2023-08-19 09:12:00,SystemResetWarning,0831.5,5.00,000.00,028.2,026.8,000.0,036.6,029.9,27.2,0000.0,0004.44,0002.17,0001.76
2023-08-19 09:13:00,SystemResetWarning,0831.5,5.00,000.00,028.2,026.9,000.0,036.6,030.0,27.2,0000.0,0004.42,0002.18,0001.77
2023-08-19 09:14:00,SystemResetWarning,0831.5,5.01,000.00,028.3,027.1,000.0,036.7,030.0,27.1,0000.0,0004.60,0002.26,0001.78
2023-08-19 09:15:00,SystemResetWarning,0831.5,5.00,000.00,028.3,027.2,000.0,036.7,030.1,26.8,0000.0,0004.81,0002.31,0001.78
2023-08-19 09:16:00,SystemResetWarning,0831.5,4.99,000.00,028.3,027.3,000.0,036.7,030.1,26.4,0000.0,0004.84,0002.35,0001.78
2023-08-19 09:17:00,SystemResetWarning,0831.5,5.00,000.00,028.4,027.4,000.0,036.7,030.2,26.5,0000.0,0004.99,0002.40,0001.78
2023-08-19 09:18:00,SystemResetWarning,0831.5,4.99,000.00,028.4,027.1,000.0,036.7,030.2,26.5,0000.0,0004.97,0002.39,0001.77
2023-08-19 09:19:00,SystemResetWarning,0831.5,5.00,000.00,028.4,025.3,000.0,036.6,029.9,26.4,0000.0,0005.09,0002.42,0001.78
2023-08-19 09:20:00,SystemResetWarning,0831.4,5.00,000.00,028.3,023.9,000.0,036.5,029.6,26.6,0000.0,0005.89,0002.40,0001.79
2023-08-19 09:21:00,SystemResetWarning,0831.4,5.00,000.00,028.2,023.9,000.0,036.5,029.4,26.6,0000.0,0005.74,0002.42,0001.80
2023-08-19 09:22:00,SystemResetWarning,0831.4,5.02,000.00,028.1,024.2,000.0,036.5,029.3,26.8,0000.0,0005.24,0002.43,0001.80
2023-08-19 09:23:00,SystemResetWarning,0831.4,5.00,000.00,028.0,024.6,000.0,036.5,029.4,26.6,0000.0,0005.18,0002.40,0001.80
2023-08-19 09:24:00,SystemResetWarning,0831.4,5.00,000.00,028.0,025.1,000.0,036.6,029.5,26.5,0000.0,0005.13,0002.37,0001.80
2023-08-19 09:25:00,SystemResetWarning,0831.4,5.00,000.00,028.0,025.5,000.0,036.6,029.6,26.6,0000.0,0005.25,0002.30,0001.80
2023-08-19 09:26:00,SystemResetWarning,0831.4,5.00,000.00,028.1,025.8,000.0,036.6,029.7,26.7,0000.0,0006.00,0002.29,0001.80
2023-08-19 09:27:00,SystemResetWarning,0831.5,5.00,000.00,028.1,026.2,000.0,036.6,029.8,26.5,0000.0,0005.87,0002.27,0001.81
2023-08-19 09:28:00,SystemResetWarning,0831.4,5.00,000.00,028.1,026.4,000.0,036.6,029.8,26.2,0000.0,0005.73,0002.21,0001.81
2023-08-19 09:29:00,SystemResetWarning,0831.5,5.00,000.00,028.2,026.6,000.0,036.6,029.9,26.3,0000.0,0005.73,0002.22,0001.81
2023-08-19 09:30:00,SystemResetWarning,0831.5,5.00,000.00,028.2,026.8,000.0,036.6,030.0,26.5,0000.0,0006.00,0002.20,0001.82
2023-08-19 09:31:00,SystemResetWarning,0831.5,5.00,000.00,028.2,026.9,000.0,036.7,030.0,26.3,0000.0,0005.55,0002.23,0001.83
2023-08-19 09:32:00,SystemResetWarning,0831.5,5.00,000.00,028.3,027.1,000.0,036.7,030.0,26.3,0000.0,0005.05,0002.22,0001.83
2023-08-19 09:33:00,SystemResetWarning,0831.5,5.00,000.00,028.3,027.2,000.0,036.7,030.1,25.9,0000.0,0004.89,0002.18,0001.84
2023-08-19 09:34:00,SystemResetWarning,0831.6,5.01,000.00,028.4,027.3,000.0,036.7,030.1,25.9,0000.0,0005.00,0002.20,0001.83
2023-08-19 09:35:00,SystemResetWarning,0831.5,5.00,000.00,028.4,027.4,000.0,036.8,030.2,25.5,0000.0,0005.02,0002.21,0001.84
2023-08-19 09:36:00,SystemResetWarning,0831.5,4.98,000.00,028.4,027.2,000.0,036.8,030.2,24.7,0000.0,0004.92,0002.25,0001.85
2023-08-19 09:37:00,SystemResetWarning,0831.5,5.00,000.00,028.4,025.5,000.0,036.7,030.0,24.4,0000.0,0003.89,0002.26,0001.86
2023-08-19 09:38:00,SystemResetWarning,0831.5,5.00,000.00,028.3,024.0,000.0,036.6,029.7,24.8,0000.0,0003.82,0002.25,0001.86
2023-08-19 09:39:00,SystemResetWarning,0831.5,5.02,000.00,028.2,023.8,000.0,036.5,029.5,25.0,0000.0,0003.79,0002.24,0001.85
2023-08-19 09:40:00,SystemResetWarning,0831.5,5.00,000.00,028.1,024.1,000.0,036.5,029.4,24.9,0000.0,0003.89,0002.23,0001.83
2023-08-19 09:41:00,SystemResetWarning,0831.5,5.00,000.00,028.1,024.6,000.0,036.6,029.4,25.3,0000.0,0003.57,0002.22,0001.82
2023-08-19 09:42:00,SystemResetWarning,0831.6,5.00,000.00,028.0,025.0,000.0,036.6,029.5,25.5,0000.0,0003.14,0002.20,0001.80
2023-08-19 09:43:00,SystemResetWarning,0831.6,4.99,000.00,028.1,025.4,000.0,036.6,029.6,26.9,0000.0,0003.17,0002.21,0001.79
2023-08-19 09:44:00,SystemResetWarning,0831.6,5.00,000.00,028.1,025.8,000.0,036.6,029.7,27.7,0000.0,0003.18,0002.19,0001.76
2023-08-19 09:45:00,SystemResetWarning,0831.6,5.00,000.00,028.1,026.1,000.0,036.6,029.8,28.1,0000.0,0003.26,0002.20,0001.75
2023-08-19 09:46:00,SystemResetWarning,0831.6,5.00,000.00,028.1,026.4,000.0,036.6,029.8,28.2,0000.0,0003.26,0002.19,0001.75
2023-08-19 09:47:00,SystemResetWarning,0831.6,5.01,000.00,028.2,026.6,000.0,036.6,029.9,28.4,0000.0,0003.26,0002.19,0001.74
2023-08-19 09:48:00,SystemResetWarning,0831.7,4.99,000.00,028.2,026.8,000.0,036.6,029.9,28.4,0000.0,0003.18,0002.14,0001.71
2023-08-19 09:49:00,SystemResetWarning,0831.6,4.99,000.00,028.2,026.9,000.0,036.7,030.0,28.4,0000.0,0003.16,0002.12,0001.69
2023-08-19 09:50:00,SystemResetWarning,0831.7,5.00,000.00,028.3,027.1,000.0,036.7,030.1,27.3,0000.0,0003.19,0002.14,0001.69
2023-08-19 09:51:00,SystemResetWarning,0831.6,5.01,000.00,028.3,027.2,000.0,036.7,030.1,27.6,0000.0,0002.98,0002.09,0001.69
2023-08-19 09:52:00,SystemResetWarning,0831.6,5.01,000.00,028.4,027.3,000.0,036.7,030.2,27.6,0000.0,0003.00,0002.10,0001.69
2023-08-19 09:53:00,SystemResetWarning,0831.6,4.99,000.00,028.4,027.4,000.0,036.8,030.2,27.1,0000.0,0003.12,0002.11,0001.68
2023-08-19 09:54:00,SystemResetWarning,0831.7,4.98,000.00,028.4,026.7,000.0,036.7,030.2,26.7,0000.0,0003.12,0002.10,0001.68
2023-08-19 09:55:00,SystemResetWarning,0831.6,5.00,000.00,028.4,024.7,000.0,036.6,029.8,26.6,0000.0,0003.15,0002.12,0001.69
2023-08-19 09:56:00,SystemResetWarning,0831.6,5.00,000.00,028.3,023.7,000.0,036.5,029.5,26.5,0000.0,0003.17,0002.18,0001.69
2023-08-19 09:57:00,SystemResetWarning,0831.7,5.01,000.00,028.1,023.8,000.0,036.5,029.3,26.8,0000.0,0003.16,0002.18,0001.69
2023-08-19 09:58:00,SystemResetWarning,0831.7,5.01,000.00,028.0,024.2,000.0,036.5,029.3,27.1,0000.0,0003.11,0002.16,0001.68
2023-08-19 09:59:00,SystemResetWarning,0831.7,4.99,000.00,028.0,024.7,000.0,036.6,029.4,25.9,0000.0,0003.18,0002.14,0001.68
